Printer-friendly version

IAU Minor Planet Center

Minor Planet Center

MPEC 2004-S19 : 2004 DA62

The following Minor Planet Electronic Circular may be linked-to from your own Web pages, but must not otherwise be redistributed electronically.


Read MPEC 2004-S18 Read MPEC 2004-S20


M.P.E.C. 2004-S19                                Issued 2004 Sept. 18, 19:33 UT

     The Minor Planet Electronic Circulars contain information on unusual
         minor planets and routine data on comets.  They are published
   on behalf of Commission 20 of the International Astronomical Union by the
          Minor Planet Center, Smithsonian Astrophysical Observatory,
                          Cambridge, MA 02138, U.S.A.

                  Supported in part by the Brinson Foundation
             Prepared using the Tamkin Foundation Computer Network

                              MPC@CFA.HARVARD.EDU
          URL http://cfa-www.harvard.edu/iau/mpc.html  ISSN 1523-6714

                                   2004 DA62

                           Revision to MPEC 2004-E03

Additional Observations:
     K04D62A   1983 03 12.70738 14 54 45.46 -24 14 05.3                 ES019260
     K04D62A   1983 03 12.74905 14 54 44.46 -24 14 23.3                 ES019260
     K04D62A   1983 04 17.58958 14 28 32.93 -28 08 42.3                 ES019260
     K04D62A   1983 04 17.63125 14 28 30.51 -28 08 54.7                 ES019260

Observer details:
260 Siding Spring-DSS.  Measurers R. Haver, A. Pelloni, G. Forti, M. Read.
    1.2-m Schmidt.

First and last observations above in comparison with prediction:
Residuals in seconds of arc (or two decimals in degrees) and reference
830312 260 31.2+ 93.6-    830417 260 35.5+ 98.7-    MPO 66339

Orbital elements:
2004 DA62
Epoch 2004 July 14.0 TT = JDT 2453200.5                 MPC
M   8.95756              (2000.0)            P               Q
n   0.04604554     Peri.  162.47929     -0.90617601     +0.05464148
a   7.7092296      Node    32.03902     -0.41540227     -0.30091343
e   0.4672328      Incl.   52.23196     +0.07928424     -0.95208477
P  21.41           H   12.8           G   0.15           U   2
Residuals in seconds of arc
830312 260 (2.6-  2.3-)   040314 644  0.3+  0.2+    040415 699  0.4-  0.3+
830312 260  1.5-  1.1-    040314 644  0.3+  0.4+    040415 699  0.8-  0.7-
830417 260  0.4-  0.2+    040314 644  0.6+  0.3+    040417 704  0.1+  0.7+
830417 260  0.3+  0.3+    040315 360  0.2-  0.1-    040417 704  0.1+  0.4+
040225 704  1.1+  0.6-    040315 360  0.2-  0.3-    040417 704  0.5+  0.8+
040225 704  0.8+  0.3-    040315 360  0.4-  0.2-    040420 360  0.0   0.3-
040225 704  0.2-  1.0-    040316 704  1.2+  0.8+    040420 360  0.2-  0.1-
040226 H36  0.1-  0.1+    040316 704  0.5+  0.8+    040420 360  0.1-  0.1-
040226 H36  0.4+  0.2+    040316 704  0.8+  0.4+    040421 704  0.1-  0.1-
040226 H36  0.1-  0.3+    040316 704  0.9+  0.7+    040421 704  0.2+  0.1-
040226 H36  0.4-  0.3+    040316 704  1.7+  1.3+    040421 704  0.2-  0.4-
040226 704  1.1+  0.0     040319 J87  0.2+  0.1+    040421 704  0.3+  0.0
040226 926  0.5+  0.6+    040319 J87  0.2-  0.2-    040421 704  0.3+  0.4-
040226 704  0.1+  0.1-    040319 J87  0.4-  0.1+    040428 608  0.2-  0.2+
040226 926  0.3+  0.2+    040319 704  0.2+  0.1-    040428 608  0.2-  0.7+
040226 704  0.3+  1.6+    040319 704  0.4+  0.2-    040428 608  0.0   0.3+
040226 926  0.0   0.0     040319 704  0.1-  0.3-    040501 608  1.0+  0.0
040226 704  0.4+  0.6+    040319 704  0.1+  0.1+    040501 608  1.2+  0.1-
040226 704  0.2+  0.3+    040319 704  0.2+  0.3+    040501 608  0.3+  1.2-
040226 704  0.7-  0.7-    040322 704  0.1+  0.3+    040509 703  1.3-  0.8-
040226 704  0.1+  0.2-    040322 704  0.1+  0.6+    040509 703  0.4-  1.4-
040226 704  0.2+  0.5+    040322 704  0.3+  0.2+    040509 703  0.8-  0.8-
040226 704  1.0+  0.7+    040322 704  0.6+  0.0     040509 703  0.5-  0.8-
040227 926  0.2+  0.6+    040322 704  0.4-  0.0     040512 699  0.3-  0.1-
040227 926  0.2-  0.6+    040327 703  0.9+  1.2+    040512 699  0.4-  0.0
040227 926  0.1+  0.0     040327 703  0.3-  0.3+    040512 699  0.6-  0.2-
040228 850  0.7+  0.0     040327 703  1.7+  0.5+    040512 699  0.5-  0.2-
040228 850  1.0+  0.7-    040327 703  0.6-  1.1+    040515 704  0.8+  0.2-
040228 850  1.0-  0.7-    040328 704  0.3-  0.1+    040515 704  0.7+  0.6+
040228 H36  0.3+  0.1-    040328 704  0.2-  0.1-    040515 704  0.2+  0.4-
040228 H36  1.4-  0.6-    040328 704  0.2+  0.0     040515 704  0.6+  0.2+
040228 H36  0.1+  0.0     040328 704  0.1-  0.2+    040515 704  0.2-  0.4+
040228 H36  0.2-  0.2-    040328 704  0.2+  0.5+    040516 704  0.6+  0.1+
040229 176  0.6-  0.0     040331 704  0.0   0.1+    040516 704  0.1+  0.1+
040229 176  0.4-  0.2-    040331 704  0.2-  0.1+    040516 704  0.6+  0.2-
040229 176  0.3-  0.3-    040331 704  0.0   0.1+    040516 704  0.1+  0.3+
040229 176  0.0   0.5-    040331 704  0.2-  0.3+    040516 704  0.8+  0.4+
040229 J95  0.5-  0.7-    040331 704  0.4+  0.5-    040523 691  0.2-  0.2-
040229 J95  0.5-  0.6-    040331 691  0.3-  0.2+    040523 691  0.2-  0.2-
040229 926  0.2+  0.4+    040331 691  0.1-  0.3+    040523 691  0.1-  0.3-
040229 926  0.2+  0.2+    040331 691  0.4-  0.1+    040615 704  0.2+  0.4-
040229 926  0.2-  0.1-    040412 699  0.3-  0.3-    040615 704  0.3+  0.3-
040229 673  0.5+  0.5+    040412 699  0.2-  0.6-    040615 704  0.5+  0.1-
040229 673  0.2+  0.5+    040412 699  0.4+  0.1-    040615 704  0.1-  0.4-
040229 673  0.3+  0.4+    040412 699  0.1+  0.1-    040721 E12  0.4+  0.2+
040229 673  0.0   0.1+    040414 215  0.0   0.1+    040721 E12  0.1-  0.1-
040302 J95  0.4-  0.0     040415 699  0.7-  0.1-    040721 E12  0.4-  0.2-
040302 J95  0.9-  0.0     040415 699  0.8-  0.0     040721 E12  0.7+  0.2+

Ephemeris:
2004 DA62                a,e,i = 7.71, 0.47, 52                  q = 4.1072
Date    TT    R. A. (2000) Decl.     Delta      r     Elong.  Phase     V
2004 09 12    13 47.36   -23 53.3    5.009    4.359    45.3     9.4    20.1
2004 09 22    13 55.33   -25 14.9    5.122    4.378    38.3     8.2    20.1
2004 10 02    14 03.85   -26 38.7    5.219    4.398    31.6     6.9    20.1

2004 12 21    15 21.92   -38 49.3    5.330    4.574    36.3     7.3    20.3
2004 12 31    15 31.50   -40 27.8    5.263    4.599    43.4     8.4    20.3
2005 01 10    15 40.62   -42 08.4    5.183    4.623    50.7     9.5    20.3
2005 01 20    15 49.12   -43 51.2    5.090    4.648    58.2    10.4    20.3
2005 01 30    15 56.79   -45 36.4    4.988    4.674    65.9    11.1    20.3
2005 02 09    16 03.41   -47 24.0    4.880    4.700    73.7    11.6    20.3
2005 02 19    16 08.71   -49 13.9    4.768    4.726    81.6    11.9    20.3
2005 03 01    16 12.39   -51 05.4    4.656    4.753    89.5    12.0    20.3
2005 03 11    16 14.15   -52 57.5    4.548    4.780    97.5    11.9    20.2
2005 03 21    16 13.62   -54 48.3    4.447    4.807   105.3    11.5    20.2
2005 03 31    16 10.51   -56 35.2    4.358    4.835   112.9    11.0    20.1
2005 04 10    16 04.60   -58 14.8    4.283    4.862   120.0    10.3    20.1
2005 04 20    15 55.83   -59 42.8    4.226    4.891   126.5     9.5    20.0
2005 04 30    15 44.49   -60 54.9    4.190    4.919   131.8     8.8    20.0
2005 05 10    15 31.18   -61 47.7    4.176    4.948   135.6     8.2    19.9
2005 05 20    15 16.91   -62 18.8    4.186    4.977   137.3     7.9    20.0
2005 05 30    15 02.89   -62 28.8    4.219    5.006   136.8     8.0    20.0
2005 06 09    14 50.25   -62 20.1    4.276    5.036   134.2     8.3    20.0
2005 06 19    14 39.88   -61 57.1    4.353    5.066   129.9     8.8    20.1
2005 06 29    14 32.29   -61 25.0    4.450    5.096   124.6     9.5    20.2
2005 07 09    14 27.61   -60 48.7    4.563    5.126   118.5    10.0    20.3
2005 07 19    14 25.79   -60 12.3    4.689    5.156   112.0    10.5    20.4
2005 07 29    14 26.59   -59 39.3    4.825    5.187   105.3    10.9    20.5
2005 08 08    14 29.75   -59 11.5    4.968    5.218    98.6    11.1    20.6
2005 08 18    14 34.99   -58 50.4    5.116    5.249    91.9    11.1    20.6
2005 08 28    14 42.06   -58 36.6    5.264    5.280    85.4    11.0    20.7
2005 09 07    14 50.74   -58 30.1    5.411    5.311    79.0    10.7    20.8
2005 09 17    15 00.85   -58 30.7    5.553    5.342    72.7    10.4    20.8
2005 09 27    15 12.24   -58 37.8    5.690    5.374    66.8     9.9    20.9
2005 10 07    15 24.77   -58 50.7    5.818    5.405    61.1     9.3    20.9

Brian G. Marsden             (C) Copyright 2004 MPC           M.P.E.C. 2004-S19

Read MPEC 2004-S18 Read MPEC 2004-S20


Our Web policy. Index to the CBAT/MPC/ICQ pages.


Valid HTML 4.01!